Location: Chenango Forks
(42.2242°N, 75.8278°W)
Time: 07:08:45
(UTC-05:00)

Daily predictions for brighter satellites

Satellite Brightness Start Highest point End
(mag) Time Altitude Azimuth Time Altitude Azimuth Time Altitude Azimuth
Cosmos 1937 Rocket 4.1 16:56:19 10° SSW 17:01:25 59° WNW 17:06:32 10° NNE
SMAP 3.4 16:57:39 10° SE 17:02:00 42° ENE 17:06:24 10° N
Cosmos 2227 Rocket 2.3 16:56:54 10° NNW 17:02:28 54° ENE 17:07:58 10° SE
COSMOS 2441 4.5 16:58:06 10° SSE 17:03:00 89° WSW 17:07:56 10° NNW
ERS-2 4.1 17:02:59 10° ENE 17:03:58 11° ENE 17:04:57 10° NE
Cosmos 1536 Rocket 4.3 17:00:10 10° SSE 17:04:00 31° E 17:07:52 10° NNE
Cosmos 1125 Rocket 4.1 16:59:59 10° S 17:04:51 38° ESE 17:09:43 10° NE
Cosmos 2219 4.3 17:05:13 10° NW 17:10:38 51° WSW 17:16:03 10° S
Cosmos 1048 Rocket 4.4 17:07:15 10° N 17:12:25 44° ENE 17:17:31 10° SE
SJ-12 4.3 17:11:49 10° S 17:15:55 70° W 17:20:01 10° NNW
Cosmos 389 Rocket 2.9 17:12:42 10° NNW 17:16:09 66° W 17:19:33 10° S
Meteor 2-9 Rocket 4.3 17:10:57 10° N 17:16:18 50° ENE 17:21:29 10° SSE
Cosmos 372 Rocket 4.3 17:11:48 10° S 17:16:45 46° ESE 17:21:42 10° NNE
ALOS 3.6 17:14:04 10° ESE 17:17:18 19° ENE 17:20:32 10° NNE
Cosmos 1271 Rocket 2.7 17:13:54 10° N 17:17:43 90° N 17:21:35 10° S
Cosmos 1980 Rocket 3.6 17:15:58 10° SE 17:19:45 19° E 17:23:15 11° ENE
NOSS 3-2 (A) 4.1 17:14:44 10° NNW 17:22:07 59° NE 17:30:09 10° SE
SJ-7 4.3 17:21:10 10° SSE 17:25:10 85° ENE 17:29:10 10° NNW
Cosmos 2297 Rocket 2.1 17:23:15 10° NNW 17:28:55 75° ENE 17:34:34 10° SSE
Cosmos 1656 3.8 17:24:09 10° S 17:29:36 59° ESE 17:35:01 10° NNE
NOSS 3-2 (C) 4.2 17:23:06 10° NNW 17:30:23 52° NE 17:38:19 10° ESE
Cosmos 1666 3.1 17:29:32 10° NNW 17:33:15 63° W 17:36:56 10° S
Cosmos 2266 Rocket 4.0 17:28:04 10° N 17:34:06 62° E 17:40:13 10° SSE
ATLAS 3B R/B 2.8 17:27:50 10° NW 17:34:31 79° WSW 17:41:02 10° SSE
USA 161 4.2 17:33:45 10° NNW 17:36:03 21° WNW 17:38:23 10° WSW
ATLAS 2AS CENTAUR R/B 3.6 17:29:19 10° SW 17:37:01 58° NW 17:45:03 10° NNE
Cosmos 1484 Rocket 3.2 17:34:31 10° S 17:38:31 71° W 17:42:32 10° NNW
Cosmos 1455 Rocket 3.5 17:35:08 10° NNW 17:39:31 65° W 17:43:50 10° S
Atlas Centaur 2 4.3 17:37:15 10° WSW 17:40:57 17° SSW 17:44:11 10° SSE
Cosmos 158 Rocket 4.1 17:38:48 10° NNW 17:43:52 75° WSW 17:48:47 10° SSE
Cosmos 1544 Rocket 4.4 17:39:39 10° NNW 17:43:54 53° W 17:48:06 10° S
DELTA 2 R/B (1) 3.8 17:40:42 10° W 17:46:13 66° S 17:51:00 14° ESE
USA 116 3.0 17:43:51 11° NNE 17:46:55 67° ESE 17:49:58 10° S
USA 215 3.4 17:41:07 10° SE 17:47:40 80° SW 17:54:14 10° NW
YAOGAN 1 2.5 17:46:06 10° SSE 17:50:23 69° ENE 17:54:43 10° N
IRS-1A Rocket 4.2 17:45:33 10° SSE 17:51:07 80° ENE 17:56:39 10° NNW
PSLV R/B 3.1 17:48:14 10° W 17:51:24 72° S 17:52:53 28° E
Abrixas rocket 3.5 17:50:39 10° WNW 17:53:28 26° N 17:54:22 22° NNE
BREEZE-M DEB (TANK) 3.7 17:51:48 10° NW 17:54:37 54° NNE 17:59:36 15° ESE
Meteor 2-4 Rocket 3.8 17:51:28 10° SSW 17:56:54 75° WNW 18:02:16 10° N
NOSS 3-4 (A) 3.5 17:52:14 10° SSW 17:58:20 63° ESE 18:02:56 19° NE
NOSS 3-4 (C) 3.5 17:52:20 10° SSW 17:58:26 62° ESE 18:03:00 19° NE
SL-16 R/B 4.1 17:59:52 10° SE 18:00:36 12° ESE 18:00:36 12° ESE
METEOR-M 4.0 17:57:33 10° SSE 18:02:53 83° ENE 18:08:16 10° NNW
ISS -0.7 18:01:07 10° W 18:03:11 16° SW 18:05:14 10° S
Cosmos 2263 Rocket 3.9 18:00:11 10° NNE 18:01:51 14° NNE 18:01:51 14° NNE
STPSAT 2 (USA 217) 4.5 17:59:09 10° NNW 18:03:43 84° ENE 18:08:16 10° SSE
FENGYUN 3A 3.7 17:58:48 10° SSE 18:04:00 53° ENE 18:09:12 10° N
Cosmos 2369 4.1 18:00:38 10° SW 18:06:15 62° WNW 18:11:56 10° NNE
Cosmos 2278 4.1 18:00:47 10° SW 18:06:25 66° WNW 18:12:06 10° NNE
COSMO-SKYMED 1 2.5 18:02:48 12° NNE 18:06:48 70° ESE 18:11:07 10° S
Cosmos 2322 Rocket 4.1 18:04:01 10° SE 18:04:44 12° ESE 18:04:44 12° ESE
RESURS DK-1 3.4 18:04:29 10° SSE 18:07:48 27° ESE 18:07:48 27° ESE
SJ 16-02 2.1 18:04:48 10° SW 18:09:05 51° WNW 18:13:24 10° N
Meteor 1-28 Rocket 4.5 18:06:02 10° N 18:09:35 41° WNW 18:13:08 10° SW
CENTAUR R/B 3.3 18:06:23 10° NNW 18:13:51 46° NE 18:19:23 20° ESE
Meteor 2-11 Rocket 4.3 18:15:16 10° S 18:21:23 78° E 18:27:33 10° N
Cosmos 1697 Rocket 2.7 18:16:00 10° SSW 18:21:40 79° WNW 18:25:53 19° NNE
NOSS 2-2 (E) 3.9 18:18:07 10° S 18:21:38 38° ESE 18:21:38 38° ESE
Cosmos 1515 3.8 18:19:06 10° SSW 18:22:52 73° W 18:25:17 21° N
EO 1 Del DPAF 3.1 18:22:10 33° NNE 18:23:49 87° E 18:27:38 10° SSW
CZ-4 R/B 3.4 18:23:01 10° SSW 18:26:26 29° W 18:29:55 10° NW
NOSS 2-2 (C) 4.1 18:25:04 10° S 18:28:01 35° SE 18:28:01 35° SE
SPOT 3 Rocket 3.5 18:23:52 10° SSE 18:29:03 89° E 18:34:14 10° NNW
Cosmos 1553 Rocket 4.1 18:24:30 10° SSE 18:30:39 51° E 18:34:27 23° NNE
Cosmos 1025 Rocket 3.1 18:27:07 10° SSW 18:31:24 75° W 18:34:10 21° N
Cosmos 1417 Rocket 4.4 18:27:56 10° S 18:33:57 62° E 18:38:48 17° NNE
ERS-2 2.8 18:33:33 10° S 18:37:08 56° WSW 18:40:46 10° NNW
Okean 1-7 Rocket 3.5 18:33:13 10° S 18:37:36 86° W 18:39:24 36° N
Cosmos 494 Rocket 3.9 18:33:15 10° NNW 18:38:34 89° E 18:43:48 10° SSE
Thor Agena Rocket 4.3 18:40:38 35° SE 18:40:38 35° SE 18:44:17 10° S
Cosmos 2251 Rocket 3.4 18:35:55 10° NNW 18:41:11 63° ENE 18:42:21 49° ESE
Cosmos 2084 3.5 18:37:11 10° SW 18:41:18 63° NW 18:41:44 58° NNW
Gblst 52 Del rocket 4.3 18:35:38 10° WNW 18:41:20 83° SW 18:44:11 34° SE
Cosmos 1745 Rocket 4.0 18:37:27 10° N 18:43:30 51° ENE 18:49:34 10° SSE
Okean 2 4.4 18:44:42 10° SSW 18:48:38 44° WNW 18:50:50 23° NNW
ALOS 3.2 18:49:52 10° S 18:54:22 48° W 18:58:54 10° NNW
FengYun 1-2 T 4.1 18:48:47 10° SSE 18:54:23 77° ENE 19:00:04 10° N
DNEPR-1 R/B 4.2 18:50:28 10° NW 18:55:40 79° WSW 18:59:46 22° SSE
Cosmos 1980 Rocket 2.5 18:57:33 10° SW 19:03:10 63° WNW 19:05:03 41° N
Cosmos 1066 Rocket 4.2 19:00:48 10° SSW 19:06:19 76° W 19:07:38 52° N
Cosmos 2344 3.7 19:25:07 10° SSW 19:31:20 55° SSE 19:31:20 55° SSE
Lacrosse 5 rocket 4.2 19:29:08 10° SSW 19:29:24 12° SSW 19:29:24 12° SSW
SL-16 R/B 3.8 19:40:08 10° SSW 19:42:32 27° SSW 19:42:32 27° SSW
Cosmos 2263 Rocket 4.3 19:42:30 10° NNW 19:43:35 16° NNW 19:43:35 16° NNW
Cosmos 2322 Rocket 3.9 19:44:33 10° SSW 19:46:37 24° SSW 19:46:37 24° SSW
CENTAUR R/B 3.7 19:57:07 10° NW 20:04:49 52° WSW 20:06:43 44° SSW
